,,PressureMeas_1m,,PRMeasQMR101_1,,RHStat155_1m_1,,SRMeasQMS101R_1m,,TAStat155_1m_1,,GenWind_1,,GenWind_1,
2019-04-12, 00:00:06,VALID,917.707,VALID,0.0,VALID,96.935,VALID,-0.014,VALID,19.758,INVALID,360.0,VALID,0.0,
2019-04-12, 00:01:06,VALID,917.696,VALID,0.0,VALID,96.969,VALID,-0.013,VALID,19.747,INVALID,360.0,VALID,0.0,
2019-04-12, 00:02:06,VALID,917.68,VALID,0.0,VALID,96.944,VALID,-0.024,VALID,19.749,INVALID,360.0,VALID,0.0,
2019-04-12, 00:03:06,VALID,917.656,VALID,0.0,VALID,96.695,VALID,-0.002,VALID,19.734,INVALID,360.0,VALID,0.0,
2019-04-12, 00:04:06,VALID,917.652,VALID,0.0,VALID,96.459,VALID,-0.002,VALID,19.726,INVALID,360.0,VALID,0.0,
2019-04-12, 00:05:06,VALID,917.656,VALID,0.0,VALID,96.416,VALID,0.002,VALID,19.74,INVALID,360.0,VALID,0.0,
2019-04-12, 00:06:06,VALID,917.656,VALID,0.0,VALID,96.372,VALID,-0.009,VALID,19.759,INVALID,360.0,VALID,0.0,
2019-04-12, 00:07:06,VALID,917.617,VALID,0.0,VALID,96.134,VALID,-0.026,VALID,19.713,INVALID,360.0,VALID,0.0,
2019-04-12, 00:08:06,VALID,917.627,VALID,0.0,VALID,96.315,VALID,-0.023,VALID,19.688,INVALID,360.0,VALID,0.0,
2019-04-12, 00:09:06,VALID,917.628,VALID,0.0,VALID,96.357,VALID,-0.018,VALID,19.71,INVALID,360.0,VALID,0.0,
2019-04-12, 00:10:06,VALID,917.608,VALID,0.0,VALID,96.248,VALID,-0.017,VALID,19.745,INVALID,360.0,VALID,0.0,
2019-04-12, 00:11:06,VALID,917.605,VALID,0.0,VALID,95.99,VALID,-0.018,VALID,19.779,INVALID,360.0,VALID,0.0,
2019-04-12, 00:12:06,VALID,917.588,VALID,0.0,VALID,95.79,VALID,-0.021,VALID,19.785,INVALID,360.0,VALID,0.0,
2019-04-12, 00:13:06,VALID,917.585,VALID,0.0,VALID,95.746,VALID,-0.017,VALID,19.777,INVALID,360.0,VALID,0.0,
2019-04-12, 00:14:06,VALID,917.582,VALID,0.0,VALID,95.772,VALID,-0.008,VALID,19.796,INVALID,360.0,VALID,0.0,
2019-04-12, 00:15:06,VALID,917.583,VALID,0.0,VALID,95.749,VALID,-0.005,VALID,19.818,INVALID,360.0,VALID,0.0,
2019-04-12, 00:16:06,VALID,917.599,VALID,0.0,VALID,95.734,VALID,-0.013,VALID,19.844,INVALID,360.0,VALID,0.0,
2019-04-12, 00:17:06,VALID,917.592,VALID,0.0,VALID,95.617,VALID,-0.017,VALID,19.856,INVALID,360.0,VALID,0.0,
2019-04-12, 00:18:06,VALID,917.576,VALID,0.0,VALID,95.422,VALID,0.013,VALID,19.879,INVALID,360.0,VALID,0.0,
2019-04-12, 00:19:06,VALID,917.596,VALID,0.0,VALID,95.295,VALID,-0.013,VALID,19.895,INVALID,360.0,VALID,0.0,
2019-04-12, 00:20:06,VALID,917.581,VALID,0.0,VALID,95.238,VALID,0.002,VALID,19.911,INVALID,360.0,VALID,0.0,
2019-04-12, 00:21:06,VALID,917.576,VALID,0.0,VALID,95.081,VALID,-0.013,VALID,19.951,INVALID,360.0,VALID,0.0,
2019-04-12, 00:22:06,VALID,917.568,VALID,0.0,VALID,94.888,VALID,-0.011,VALID,19.989,INVALID,360.0,VALID,0.0,
2019-04-12, 00:23:06,VALID,917.546,VALID,0.0,VALID,94.727,VALID,-0.005,VALID,20.013,INVALID,360.0,VALID,0.0,
2019-04-12, 00:24:06,VALID,917.57,VALID,0.0,VALID,94.706,VALID,-0.016,VALID,20.042,INVALID,360.0,VALID,0.0,
2019-04-12, 00:25:06,VALID,917.528,VALID,0.0,VALID,94.81,VALID,-0.019,VALID,20.046,INVALID,360.0,VALID,0.0,
2019-04-12, 00:26:06,VALID,917.523,VALID,0.0,VALID,94.839,VALID,-0.002,VALID,20.048,INVALID,360.0,VALID,0.0,
2019-04-12, 00:27:06,VALID,917.524,VALID,0.0,VALID,94.777,VALID,0.005,VALID,20.042,INVALID,360.0,VALID,0.0,
2019-04-12, 00:28:06,VALID,917.509,VALID,0.0,VALID,94.625,VALID,-0.004,VALID,20.053,INVALID,360.0,VALID,0.0,
2019-04-12, 00:29:06,VALID,917.496,VALID,0.0,VALID,94.334,VALID,0.004,VALID,20.078,INVALID,360.0,VALID,0.0,
2019-04-12, 00:30:06,VALID,917.471,VALID,0.0,VALID,94.079,VALID,0.006,VALID,20.125,INVALID,360.0,VALID,0.0,
2019-04-12, 00:31:06,VALID,917.481,VALID,0.0,VALID,93.936,VALID,-0.002,VALID,20.176,INVALID,360.0,VALID,0.0,
2019-04-12, 00:32:06,VALID,917.459,VALID,0.0,VALID,94.114,VALID,0.0,VALID,20.195,INVALID,360.0,VALID,0.0,
2019-04-12, 00:33:06,VALID,917.457,VALID,0.0,VALID,94.119,VALID,-0.016,VALID,20.176,INVALID,360.0,VALID,0.0,
2019-04-12, 00:34:06,VALID,917.439,VALID,0.0,VALID,94.31,VALID,-0.029,VALID,20.179,INVALID,360.0,VALID,0.0,
2019-04-12, 00:35:06,VALID,917.427,VALID,0.0,VALID,94.33,VALID,-0.027,VALID,20.16,INVALID,360.0,VALID,0.0,
2019-04-12, 00:36:06,VALID,917.43,VALID,0.0,VALID,94.432,VALID,-0.004,VALID,20.131,INVALID,360.0,VALID,0.0,
2019-04-12, 00:37:06,VALID,917.419,VALID,0.0,VALID,94.474,VALID,-0.008,VALID,20.117,INVALID,360.0,VALID,0.0,
2019-04-12, 00:38:06,VALID,917.424,VALID,0.0,VALID,94.046,VALID,-0.011,VALID,20.148,INVALID,360.0,VALID,0.0,
2019-04-12, 00:39:06,VALID,917.423,VALID,0.0,VALID,94.045,VALID,-0.017,VALID,20.155,INVALID,360.0,VALID,0.0,
2019-04-12, 00:40:06,VALID,917.426,VALID,0.0,VALID,93.871,VALID,-0.0,VALID,20.161,INVALID,360.0,VALID,0.0,
2019-04-12, 00:41:06,VALID,917.434,VALID,0.0,VALID,93.878,VALID,-0.012,VALID,20.17,INVALID,360.0,VALID,0.0,
2019-04-12, 00:42:06,VALID,917.447,VALID,0.0,VALID,93.983,VALID,-0.012,VALID,20.172,INVALID,360.0,VALID,0.0,
2019-04-12, 00:43:06,VALID,917.45,VALID,0.0,VALID,94.445,VALID,-0.01,VALID,20.157,INVALID,360.0,VALID,0.0,
2019-04-12, 00:44:06,VALID,917.455,VALID,0.0,VALID,95.017,VALID,0.002,VALID,20.126,INVALID,360.0,VALID,0.0,
2019-04-12, 00:45:06,VALID,917.445,VALID,0.0,VALID,95.126,VALID,0.002,VALID,20.082,INVALID,360.0,VALID,0.0,
2019-04-12, 00:46:06,VALID,917.435,VALID,0.0,VALID,94.583,VALID,-0.011,VALID,20.097,INVALID,360.0,VALID,0.0,
2019-04-12, 00:47:06,VALID,917.464,VALID,0.0,VALID,94.473,VALID,0.021,VALID,20.148,INVALID,360.0,VALID,0.0,
2019-04-12, 00:48:06,VALID,917.452,VALID,0.0,VALID,94.429,VALID,-0.003,VALID,20.126,INVALID,360.0,VALID,0.0,
2019-04-12, 00:49:06,VALID,917.431,VALID,0.0,VALID,94.406,VALID,0.013,VALID,20.144,INVALID,360.0,VALID,0.0,
2019-04-12, 00:50:06,VALID,917.424,VALID,0.0,VALID,94.59,VALID,0.013,VALID,20.146,INVALID,360.0,VALID,0.0,
2019-04-12, 00:51:06,VALID,917.424,VALID,0.0,VALID,94.377,VALID,-0.001,VALID,20.119,INVALID,360.0,VALID,0.0,
2019-04-12, 00:52:06,VALID,917.418,VALID,0.0,VALID,94.32,VALID,-0.008,VALID,20.107,INVALID,360.0,VALID,0.0,
2019-04-12, 00:53:06,VALID,917.41,VALID,0.0,VALID,94.016,VALID,-0.007,VALID,20.111,INVALID,360.0,VALID,0.0,
2019-04-12, 00:54:06,VALID,917.41,VALID,0.0,VALID,93.875,VALID,0.009,VALID,20.132,INVALID,360.0,VALID,0.0,
2019-04-12, 00:55:06,VALID,917.425,VALID,0.0,VALID,93.862,VALID,0.025,VALID,20.144,INVALID,360.0,VALID,0.0,
2019-04-12, 00:56:06,VALID,917.425,VALID,0.0,VALID,93.776,VALID,0.006,VALID,20.171,INVALID,360.0,VALID,0.0,
2019-04-12, 00:57:06,VALID,917.434,VALID,0.0,VALID,93.638,VALID,0.018,VALID,20.176,INVALID,360.0,VALID,0.0,
2019-04-12, 00:58:06,VALID,917.442,VALID,0.0,VALID,93.558,VALID,0.006,VALID,20.184,INVALID,360.0,VALID,0.0,
2019-04-12, 00:59:06,VALID,917.457,VALID,0.0,VALID,93.474,VALID,-0.001,VALID,20.188,INVALID,360.0,VALID,0.0,
2019-04-12, 01:00:06,VALID,917.433,VALID,0.0,VALID,93.63,VALID,0.033,VALID,20.188,INVALID,360.0,VALID,0.0,
2019-04-12, 01:01:06,VALID,917.449,VALID,0.0,VALID,93.895,VALID,0.02,VALID,20.162,INVALID,360.0,VALID,0.0,
2019-04-12, 01:02:06,VALID,917.458,VALID,0.0,VALID,94.226,VALID,0.024,VALID,20.137,INVALID,360.0,VALID,0.0,
2019-04-12, 01:03:06,VALID,917.443,VALID,0.0,VALID,94.289,VALID,0.009,VALID,20.106,INVALID,360.0,VALID,0.0,
2019-04-12, 01:04:06,VALID,917.463,VALID,0.0,VALID,94.3,VALID,0.013,VALID,20.09,INVALID,360.0,VALID,0.0,
2019-04-12, 01:05:06,VALID,917.435,VALID,0.0,VALID,94.291,VALID,0.005,VALID,20.084,INVALID,360.0,VALID,0.0,
2019-04-12, 01:06:06,VALID,917.422,VALID,0.0,VALID,94.093,VALID,0.019,VALID,20.082,INVALID,360.0,VALID,0.0,
2019-04-12, 01:07:06,VALID,917.431,VALID,0.0,VALID,94.162,VALID,0.018,VALID,20.097,INVALID,360.0,VALID,0.0,
2019-04-12, 01:08:06,VALID,917.431,VALID,0.0,VALID,94.054,VALID,0.037,VALID,20.095,INVALID,360.0,VALID,0.0,
2019-04-12, 01:09:06,VALID,917.427,VALID,0.0,VALID,93.831,VALID,0.034,VALID,20.104,INVALID,360.0,VALID,0.0,
2019-04-12, 01:10:06,VALID,917.395,VALID,0.0,VALID,93.669,VALID,0.035,VALID,20.133,INVALID,360.0,VALID,0.0,
2019-04-12, 01:11:06,VALID,917.402,VALID,0.0,VALID,93.627,VALID,0.014,VALID,20.143,INVALID,360.0,VALID,0.0,
2019-04-12, 01:12:06,VALID,917.396,VALID,0.0,VALID,93.52,VALID,0.024,VALID,20.158,INVALID,360.0,VALID,0.0,
2019-04-12, 01:13:06,VALID,917.396,VALID,0.0,VALID,93.352,VALID,0.022,VALID,20.173,INVALID,360.0,VALID,0.0,
2019-04-12, 01:14:06,VALID,917.374,VALID,0.0,VALID,93.35,VALID,0.025,VALID,20.178,INVALID,360.0,VALID,0.0,
2019-04-12, 01:15:06,VALID,917.362,VALID,0.0,VALID,93.315,VALID,0.055,VALID,20.167,INVALID,360.0,VALID,0.0,
2019-04-12, 01:16:06,VALID,917.35,VALID,0.0,VALID,93.476,VALID,0.068,VALID,20.152,INVALID,360.0,VALID,0.0,
2019-04-12, 01:17:06,VALID,917.33,VALID,0.0,VALID,93.472,VALID,0.045,VALID,20.124,INVALID,360.0,VALID,0.0,
2019-04-12, 01:18:06,VALID,917.32,VALID,0.0,VALID,93.768,VALID,0.054,VALID,20.11,INVALID,360.0,VALID,0.0,
2019-04-12, 01:19:06,VALID,917.312,VALID,0.0,VALID,94.024,VALID,0.047,VALID,20.109,INVALID,360.0,VALID,0.0,
2019-04-12, 01:20:06,VALID,917.315,VALID,0.0,VALID,94.463,VALID,0.048,VALID,20.113,INVALID,360.0,VALID,0.0,
2019-04-12, 01:21:06,VALID,917.292,VALID,0.0,VALID,94.68,VALID,0.062,VALID,20.081,INVALID,360.0,VALID,0.0,
2019-04-12, 01:22:06,VALID,917.309,VALID,0.0,VALID,94.617,VALID,0.051,VALID,20.075,INVALID,360.0,VALID,0.0,
2019-04-12, 01:23:06,VALID,917.314,VALID,0.0,VALID,95.391,VALID,0.045,VALID,20.062,INVALID,360.0,VALID,0.0,
2019-04-12, 01:24:06,VALID,917.318,VALID,0.0,VALID,95.914,VALID,0.057,VALID,20.013,INVALID,360.0,VALID,0.0,
2019-04-12, 01:25:06,VALID,917.317,VALID,0.0,VALID,96.33,VALID,0.058,VALID,19.962,INVALID,360.0,VALID,0.0,
2019-04-12, 01:26:06,VALID,917.31,VALID,0.0,VALID,96.589,VALID,0.06,VALID,19.908,INVALID,360.0,VALID,0.0,
2019-04-12, 01:27:06,VALID,917.318,VALID,0.0,VALID,96.861,VALID,0.048,VALID,19.88,INVALID,360.0,VALID,0.0,
2019-04-12, 01:28:06,VALID,917.306,VALID,0.0,VALID,97.033,VALID,0.051,VALID,19.857,INVALID,360.0,VALID,0.0,
2019-04-12, 01:29:06,VALID,917.303,VALID,0.0,VALID,97.33,VALID,0.026,VALID,19.869,INVALID,360.0,VALID,0.0,
2019-04-12, 01:30:06,VALID,917.299,VALID,0.0,VALID,97.49,VALID,-0.024,VALID,19.873,INVALID,360.0,VALID,0.0,
2019-04-12, 01:31:06,VALID,917.286,VALID,0.0,VALID,97.435,VALID,-0.012,VALID,19.833,INVALID,360.0,VALID,0.0,
2019-04-12, 01:32:06,VALID,917.276,VALID,0.0,VALID,97.365,VALID,-0.012,VALID,19.842,INVALID,360.0,VALID,0.0,
2019-04-12, 01:33:06,VALID,917.281,VALID,0.0,VALID,97.381,VALID,-0.012,VALID,19.863,INVALID,360.0,VALID,0.0,
2019-04-12, 01:34:06,VALID,917.265,VALID,0.0,VALID,97.369,VALID,0.003,VALID,19.871,INVALID,360.0,VALID,0.0,
2019-04-12, 01:35:06,VALID,917.267,VALID,0.0,VALID,97.379,VALID,0.001,VALID,19.881,INVALID,360.0,VALID,0.0,
2019-04-12, 01:36:06,VALID,917.26,VALID,0.0,VALID,97.316,VALID,0.003,VALID,19.874,INVALID,360.0,VALID,0.0,
2019-04-12, 01:37:06,VALID,917.262,VALID,0.0,VALID,97.336,VALID,0.001,VALID,19.858,INVALID,360.0,VALID,0.0,
2019-04-12, 01:38:06,VALID,917.263,VALID,0.0,VALID,97.469,VALID,-0.014,VALID,19.87,INVALID,360.0,VALID,0.0,
2019-04-12, 01:39:06,VALID,917.264,VALID,0.0,VALID,97.498,VALID,-0.014,VALID,19.852,INVALID,360.0,VALID,0.0,
2019-04-12, 01:40:06,VALID,917.257,VALID,0.0,VALID,97.527,VALID,0.001,VALID,19.821,INVALID,360.0,VALID,0.0,
2019-04-12, 01:41:06,VALID,917.243,VALID,0.0,VALID,97.489,VALID,-0.007,VALID,19.812,INVALID,360.0,VALID,0.0,
2019-04-12, 01:42:06,VALID,917.251,VALID,0.0,VALID,97.412,VALID,-0.022,VALID,19.813,INVALID,360.0,VALID,0.0,
2019-04-12, 01:43:06,VALID,917.241,VALID,0.0,VALID,97.377,VALID,-0.013,VALID,19.828,INVALID,360.0,VALID,0.0,
2019-04-12, 01:44:06,VALID,917.238,VALID,0.0,VALID,97.37,VALID,-0.024,VALID,19.856,INVALID,360.0,VALID,0.0,
2019-04-12, 01:45:06,VALID,917.247,VALID,0.0,VALID,97.475,VALID,-0.021,VALID,19.883,INVALID,360.0,VALID,0.0,
2019-04-12, 01:46:06,VALID,917.247,VALID,0.0,VALID,97.422,VALID,-0.011,VALID,19.869,INVALID,360.0,VALID,0.0,
2019-04-12, 01:47:06,VALID,917.257,VALID,0.0,VALID,97.416,VALID,-0.014,VALID,19.852,INVALID,360.0,VALID,0.0,
2019-04-12, 01:48:06,VALID,917.244,VALID,0.0,VALID,97.452,VALID,-0.034,VALID,19.841,INVALID,360.0,VALID,0.0,
2019-04-12, 01:49:06,VALID,917.251,VALID,0.0,VALID,97.472,VALID,-0.029,VALID,19.831,INVALID,360.0,VALID,0.0,
2019-04-12, 01:50:06,VALID,917.254,VALID,0.0,VALID,97.311,VALID,-0.014,VALID,19.814,INVALID,360.0,VALID,0.0,
2019-04-12, 01:51:06,VALID,917.264,VALID,0.0,VALID,97.182,VALID,-0.019,VALID,19.822,INVALID,360.0,VALID,0.0,
2019-04-12, 01:52:06,VALID,917.243,VALID,0.0,VALID,97.014,VALID,-0.023,VALID,19.82,INVALID,360.0,VALID,0.0,
2019-04-12, 01:53:06,VALID,917.266,VALID,0.0,VALID,96.855,VALID,-0.045,VALID,19.85,INVALID,360.0,VALID,0.0,
2019-04-12, 01:54:06,VALID,917.25,VALID,0.0,VALID,96.715,VALID,-0.016,VALID,19.871,INVALID,360.0,VALID,0.0,
2019-04-12, 01:55:06,VALID,917.245,VALID,0.0,VALID,96.435,VALID,-0.032,VALID,19.892,INVALID,360.0,VALID,0.0,
2019-04-12, 01:56:06,VALID,917.233,VALID,0.0,VALID,96.285,VALID,-0.033,VALID,19.92,INVALID,360.0,VALID,0.0,
2019-04-12, 01:57:06,VALID,917.243,VALID,0.0,VALID,96.104,VALID,-0.036,VALID,19.941,INVALID,360.0,VALID,0.0,
2019-04-12, 01:58:06,VALID,917.247,VALID,0.0,VALID,96.349,VALID,-0.023,VALID,20.003,INVALID,360.0,VALID,0.0,
2019-04-12, 01:59:06,VALID,917.254,VALID,0.0,VALID,96.458,VALID,-0.032,VALID,19.999,INVALID,360.0,VALID,0.0,
2019-04-12, 02:00:06,VALID,917.289,VALID,0.0,VALID,96.204,VALID,0.012,VALID,19.99,INVALID,360.0,VALID,0.0,
2019-04-12, 02:01:06,VALID,917.291,VALID,0.0,VALID,96.098,VALID,0.018,VALID,19.997,INVALID,360.0,VALID,0.0,
2019-04-12, 02:02:06,VALID,917.287,VALID,0.0,VALID,95.978,VALID,0.021,VALID,20.005,INVALID,360.0,VALID,0.0,
2019-04-12, 02:03:06,VALID,917.27,VALID,0.0,VALID,95.791,VALID,0.02,VALID,20.015,INVALID,360.0,VALID,0.0,
2019-04-12, 02:04:06,VALID,917.268,VALID,0.0,VALID,95.341,VALID,0.035,VALID,20.035,INVALID,360.0,VALID,0.0,
2019-04-12, 02:05:06,VALID,917.257,VALID,0.0,VALID,94.697,VALID,0.027,VALID,20.053,INVALID,360.0,VALID,0.0,
2019-04-12, 02:06:06,VALID,917.235,VALID,0.0,VALID,95.024,VALID,0.033,VALID,20.095,INVALID,360.0,VALID,0.0,
2019-04-12, 02:07:06,VALID,917.237,VALID,0.0,VALID,95.188,VALID,0.021,VALID,20.1,INVALID,360.0,VALID,0.0,
2019-04-12, 02:08:06,VALID,917.239,VALID,0.0,VALID,95.553,VALID,0.0,VALID,20.063,INVALID,360.0,VALID,0.0,
2019-04-12, 02:09:06,VALID,917.249,VALID,0.0,VALID,95.733,VALID,0.029,VALID,20.042,INVALID,360.0,VALID,0.0,
2019-04-12, 02:10:06,VALID,917.233,VALID,0.0,VALID,95.555,VALID,0.027,VALID,20.006,VALID,357.0,VALID,0.0,
2019-04-12, 02:11:06,VALID,917.241,VALID,0.0,VALID,95.402,VALID,0.03,VALID,19.999,VALID,357.0,VALID,0.0,
2019-04-12, 02:12:06,VALID,917.211,VALID,0.0,VALID,95.314,VALID,0.011,VALID,20.008,VALID,357.0,VALID,0.0,
2019-04-12, 02:13:06,VALID,917.212,VALID,0.0,VALID,95.386,VALID,0.029,VALID,20.043,INVALID,360.0,VALID,0.0,
2019-04-12, 02:14:06,VALID,917.211,VALID,0.0,VALID,95.431,VALID,0.026,VALID,20.065,INVALID,360.0,VALID,0.0,
2019-04-12, 02:15:06,VALID,917.202,VALID,0.0,VALID,95.433,VALID,0.033,VALID,20.071,INVALID,360.0,VALID,0.0,
2019-04-12, 02:16:06,VALID,917.17,VALID,0.0,VALID,95.169,VALID,0.033,VALID,20.06,INVALID,360.0,VALID,0.0,
2019-04-12, 02:17:06,VALID,917.179,VALID,0.0,VALID,95.052,VALID,0.045,VALID,20.064,INVALID,360.0,VALID,0.0,
2019-04-12, 02:18:06,VALID,917.163,VALID,0.0,VALID,95.134,VALID,0.026,VALID,20.092,INVALID,360.0,VALID,0.0,
2019-04-12, 02:19:06,VALID,917.168,VALID,0.0,VALID,95.283,VALID,0.034,VALID,20.121,INVALID,360.0,VALID,0.0,
2019-04-12, 02:20:06,VALID,917.179,VALID,0.0,VALID,95.552,VALID,0.027,VALID,20.125,INVALID,360.0,VALID,0.0,
2019-04-12, 02:21:06,VALID,917.176,VALID,0.0,VALID,95.3,VALID,0.038,VALID,20.095,INVALID,360.0,VALID,0.0,
2019-04-12, 02:22:06,VALID,917.169,VALID,0.0,VALID,95.301,VALID,0.031,VALID,20.092,INVALID,360.0,VALID,0.0,
2019-04-12, 02:23:06,VALID,917.169,VALID,0.0,VALID,94.675,VALID,0.047,VALID,20.091,INVALID,360.0,VALID,0.0,
2019-04-12, 02:24:06,VALID,917.164,VALID,0.0,VALID,94.743,VALID,0.048,VALID,20.117,INVALID,360.0,VALID,0.0,
2019-04-12, 02:25:06,VALID,917.142,VALID,0.0,VALID,94.56,VALID,0.041,VALID,20.109,INVALID,360.0,VALID,0.0,
2019-04-12, 02:26:06,VALID,917.126,VALID,0.0,VALID,94.566,VALID,0.029,VALID,20.117,INVALID,360.0,VALID,0.0,
2019-04-12, 02:27:06,VALID,917.124,VALID,0.0,VALID,94.789,VALID,0.036,VALID,20.108,INVALID,360.0,VALID,0.0,
2019-04-12, 02:28:06,VALID,917.117,VALID,0.0,VALID,95.088,VALID,0.047,VALID,20.097,INVALID,360.0,VALID,0.0,
2019-04-12, 02:29:06,VALID,917.119,VALID,0.0,VALID,95.34,VALID,0.029,VALID,20.084,INVALID,360.0,VALID,0.0,
2019-04-12, 02:30:06,VALID,917.108,VALID,0.0,VALID,95.477,VALID,-0.023,VALID,20.053,INVALID,360.0,VALID,0.0,
2019-04-12, 02:31:06,VALID,917.116,VALID,0.0,VALID,95.488,VALID,-0.031,VALID,20.02,INVALID,360.0,VALID,0.0,
2019-04-12, 02:32:06,VALID,917.104,VALID,0.0,VALID,95.783,VALID,-0.033,VALID,20.019,INVALID,360.0,VALID,0.0,
2019-04-12, 02:33:06,VALID,917.081,VALID,0.0,VALID,95.988,VALID,-0.034,VALID,20.037,INVALID,360.0,VALID,0.0,
2019-04-12, 02:34:06,VALID,917.075,VALID,0.0,VALID,96.099,VALID,-0.036,VALID,20.047,INVALID,360.0,VALID,0.0,
2019-04-12, 02:35:06,VALID,917.081,VALID,0.0,VALID,95.963,VALID,-0.022,VALID,20.041,INVALID,360.0,VALID,0.0,
2019-04-12, 02:36:06,VALID,917.067,VALID,0.0,VALID,95.939,VALID,-0.037,VALID,20.041,INVALID,360.0,VALID,0.0,
2019-04-12, 02:37:06,VALID,917.067,VALID,0.0,VALID,96.061,VALID,-0.046,VALID,20.047,INVALID,360.0,VALID,0.0,
2019-04-12, 02:38:06,VALID,917.06,VALID,0.0,VALID,96.087,VALID,-0.028,VALID,20.034,INVALID,360.0,VALID,0.0,
2019-04-12, 02:39:06,VALID,917.082,VALID,0.0,VALID,96.021,VALID,-0.037,VALID,20.024,INVALID,360.0,VALID,0.0,
2019-04-12, 02:40:06,VALID,917.082,VALID,0.0,VALID,95.763,VALID,-0.024,VALID,20.008,INVALID,360.0,VALID,0.0,
2019-04-12, 02:41:06,VALID,917.075,VALID,0.0,VALID,96.072,VALID,-0.015,VALID,20.001,INVALID,360.0,VALID,0.0,
2019-04-12, 02:42:06,VALID,917.066,VALID,0.0,VALID,96.372,VALID,-0.019,VALID,19.992,INVALID,360.0,VALID,0.0,
2019-04-12, 02:43:06,VALID,917.055,VALID,0.0,VALID,96.586,VALID,-0.016,VALID,19.994,INVALID,360.0,VALID,0.0,
2019-04-12, 02:44:06,VALID,917.046,VALID,0.0,VALID,96.747,VALID,-0.016,VALID,20.002,INVALID,360.0,VALID,0.0,
2019-04-12, 02:45:06,VALID,917.043,VALID,0.0,VALID,96.841,VALID,-0.011,VALID,20.003,INVALID,360.0,VALID,0.0,
2019-04-12, 02:46:06,VALID,917.027,VALID,0.0,VALID,96.892,VALID,-0.006,VALID,19.994,INVALID,360.0,VALID,0.0,
2019-04-12, 02:47:06,VALID,917.015,VALID,0.0,VALID,96.893,VALID,-0.026,VALID,20.002,INVALID,360.0,VALID,0.0,
2019-04-12, 02:48:06,VALID,916.999,VALID,0.0,VALID,96.987,VALID,-0.023,VALID,20.012,INVALID,360.0,VALID,0.0,
2019-04-12, 02:49:06,VALID,917.001,VALID,0.0,VALID,96.937,VALID,-0.025,VALID,19.994,INVALID,360.0,VALID,0.0,
2019-04-12, 02:50:06,VALID,917.032,VALID,0.0,VALID,96.921,VALID,0.001,VALID,19.984,INVALID,360.0,VALID,0.0,
2019-04-12, 02:51:06,VALID,917.026,VALID,0.0,VALID,96.938,VALID,-0.015,VALID,19.974,INVALID,360.0,VALID,0.0,
2019-04-12, 02:52:06,VALID,917.029,VALID,0.0,VALID,96.909,VALID,-0.021,VALID,19.964,INVALID,360.0,VALID,0.0,
2019-04-12, 02:53:06,VALID,917.022,VALID,0.0,VALID,96.99,VALID,-0.024,VALID,19.961,INVALID,360.0,VALID,0.0,
2019-04-12, 02:54:06,VALID,916.992,VALID,0.0,VALID,97.078,VALID,-0.025,VALID,19.938,INVALID,360.0,VALID,0.0,
2019-04-12, 02:55:06,VALID,917.01,VALID,0.0,VALID,97.028,VALID,-0.024,VALID,19.885,INVALID,360.0,VALID,0.0,
2019-04-12, 02:56:06,VALID,917.001,VALID,0.0,VALID,97.088,VALID,-0.009,VALID,19.851,INVALID,360.0,VALID,0.0,
2019-04-12, 02:57:06,VALID,916.991,VALID,0.0,VALID,97.044,VALID,-0.008,VALID,19.817,INVALID,360.0,VALID,0.0,
2019-04-12, 02:58:06,VALID,916.995,VALID,0.0,VALID,97.208,VALID,-0.009,VALID,19.828,INVALID,360.0,VALID,0.0,
2019-04-12, 02:59:06,VALID,916.967,VALID,0.0,VALID,97.277,VALID,-0.019,VALID,19.818,INVALID,360.0,VALID,0.0,
2019-04-12, 03:00:06,VALID,916.963,VALID,0.0,VALID,97.209,VALID,-0.012,VALID,19.794,INVALID,360.0,VALID,0.0,
2019-04-12, 03:01:06,VALID,916.973,VALID,0.0,VALID,97.325,VALID,0.001,VALID,19.803,INVALID,360.0,VALID,0.0,
2019-04-12, 03:02:06,VALID,916.954,VALID,0.0,VALID,97.429,VALID,-0.007,VALID,19.825,INVALID,360.0,VALID,0.0,
2019-04-12, 03:03:06,VALID,916.953,VALID,0.0,VALID,97.519,VALID,-0.009,VALID,19.825,INVALID,360.0,VALID,0.0,
2019-04-12, 03:04:06,VALID,916.904,VALID,0.0,VALID,97.471,VALID,-0.007,VALID,19.797,INVALID,360.0,VALID,0.0,
2019-04-12, 03:05:06,VALID,916.927,VALID,0.0,VALID,97.434,VALID,-0.03,VALID,19.779,INVALID,360.0,VALID,0.0,
2019-04-12, 03:06:06,VALID,916.905,VALID,0.0,VALID,97.528,VALID,-0.038,VALID,19.786,INVALID,360.0,VALID,0.0,
2019-04-12, 03:07:06,VALID,916.875,VALID,0.0,VALID,97.491,VALID,-0.032,VALID,19.754,INVALID,360.0,VALID,0.0,
2019-04-12, 03:08:06,VALID,916.85,VALID,0.0,VALID,97.451,VALID,-0.028,VALID,19.731,INVALID,360.0,VALID,0.0,
2019-04-12, 03:09:06,VALID,916.863,VALID,0.0,VALID,97.437,VALID,-0.011,VALID,19.722,INVALID,360.0,VALID,0.0,
2019-04-12, 03:10:06,VALID,916.869,VALID,0.0,VALID,97.404,VALID,-0.013,VALID,19.731,INVALID,360.0,VALID,0.0,
2019-04-12, 03:11:06,VALID,916.876,VALID,0.0,VALID,97.355,VALID,-0.013,VALID,19.739,INVALID,360.0,VALID,0.0,
2019-04-12, 03:12:06,VALID,916.869,VALID,0.0,VALID,97.316,VALID,-0.012,VALID,19.751,INVALID,360.0,VALID,0.0,
2019-04-12, 03:13:06,VALID,916.871,VALID,0.0,VALID,97.334,VALID,-0.003,VALID,19.763,INVALID,360.0,VALID,0.0,
2019-04-12, 03:14:06,VALID,916.87,VALID,0.0,VALID,97.357,VALID,-0.004,VALID,19.775,INVALID,360.0,VALID,0.0,
2019-04-12, 03:15:06,VALID,916.849,VALID,0.0,VALID,97.361,VALID,0.012,VALID,19.777,INVALID,360.0,VALID,0.0,
2019-04-12, 03:16:06,VALID,916.859,VALID,0.0,VALID,97.395,VALID,0.006,VALID,19.795,INVALID,360.0,VALID,0.0,
2019-04-12, 03:17:06,VALID,916.829,VALID,0.0,VALID,97.397,VALID,0.014,VALID,19.775,INVALID,360.0,VALID,0.0,
2019-04-12, 03:18:06,VALID,916.826,VALID,0.0,VALID,97.231,VALID,0.029,VALID,19.728,INVALID,360.0,VALID,0.0,
2019-04-12, 03:19:06,VALID,916.815,VALID,0.0,VALID,97.287,VALID,0.012,VALID,19.739,INVALID,360.0,VALID,0.0,
2019-04-12, 03:20:06,VALID,916.814,VALID,0.0,VALID,97.316,VALID,0.033,VALID,19.724,INVALID,360.0,VALID,0.0,
2019-04-12, 03:21:06,VALID,916.798,VALID,0.0,VALID,97.345,VALID,0.023,VALID,19.698,INVALID,360.0,VALID,0.0,
2019-04-12, 03:22:06,VALID,916.761,VALID,0.0,VALID,97.393,VALID,0.009,VALID,19.693,INVALID,360.0,VALID,0.0,
2019-04-12, 03:23:06,VALID,916.74,VALID,0.0,VALID,97.385,VALID,0.005,VALID,19.695,INVALID,360.0,VALID,0.0,
2019-04-12, 03:24:06,VALID,916.722,VALID,0.0,VALID,97.371,VALID,-0.001,VALID,19.693,INVALID,360.0,VALID,0.0,
2019-04-12, 03:25:06,VALID,916.716,VALID,0.0,VALID,97.266,VALID,0.009,VALID,19.681,INVALID,360.0,VALID,0.0,
2019-04-12, 03:26:06,VALID,916.719,VALID,0.0,VALID,97.241,VALID,0.006,VALID,19.673,INVALID,360.0,VALID,0.0,
2019-04-12, 03:27:06,VALID,916.712,VALID,0.0,VALID,97.263,VALID,0.007,VALID,19.678,INVALID,360.0,VALID,0.0,
2019-04-12, 03:28:06,VALID,916.699,VALID,0.0,VALID,97.31,VALID,0.011,VALID,19.666,INVALID,360.0,VALID,0.0,
2019-04-12, 03:29:06,VALID,916.7,VALID,0.0,VALID,97.331,VALID,0.005,VALID,19.672,INVALID,360.0,VALID,0.0,
2019-04-12, 03:30:06,VALID,916.691,VALID,0.0,VALID,97.369,VALID,0.002,VALID,19.683,INVALID,360.0,VALID,0.0,
2019-04-12, 03:31:06,VALID,916.693,VALID,0.0,VALID,97.389,VALID,0.011,VALID,19.696,INVALID,360.0,VALID,0.0,
2019-04-12, 03:32:06,VALID,916.686,VALID,0.0,VALID,97.466,VALID,0.014,VALID,19.713,INVALID,360.0,VALID,0.0,
2019-04-12, 03:33:06,VALID,916.666,VALID,0.0,VALID,97.461,VALID,0.005,VALID,19.705,INVALID,360.0,VALID,0.0,
2019-04-12, 03:34:06,VALID,916.657,VALID,0.0,VALID,97.408,VALID,0.009,VALID,19.687,INVALID,360.0,VALID,0.0,
2019-04-12, 03:35:06,VALID,916.648,VALID,0.0,VALID,97.46,VALID,0.008,VALID,19.682,INVALID,360.0,VALID,0.0,
2019-04-12, 03:36:06,VALID,916.63,VALID,0.0,VALID,97.466,VALID,-0.003,VALID,19.68,INVALID,360.0,VALID,0.0,
2019-04-12, 03:37:06,VALID,916.638,VALID,0.0,VALID,97.473,VALID,-0.001,VALID,19.68,INVALID,360.0,VALID,0.0,